Location: ????????
(56.1167°N, 38.6333°E)
Time: 20:30:09
(UTC+00:00)

Cosmos 2173 Rocket - Pass Details

Date: 18 November 2025
Orbit: 943 x 1000 km, 83.0° (Epoch: 14 December)

Event Time Altitude Azimuth Distance (km) Brightness Sun altitude
Rises 14:05:42 0° 194° (SSW) 3,648 7.6 -7.4°
Reaches altitude 10° 14:08:12 10° 195° (SSW) 2,697 6.9 -7.7°
Maximum altitude 14:14:23 79° 282° (WNW) 979 4.2 -8.5°
Drops below altitude 10° 14:20:32 10° 10° (N) 2,683 6.0 -9.3°
Sets 14:23:02 0° 12° (NNE) 3,628 6.7 -9.6°
